{"data":{"norad_id":66929,"epoch":"2026-09-20T03:02:09.746016Z","epoch_age_seconds":116913,"freshness":"FRESH","line1":"1 66929U 25286E   26263.12650169  .00024709  00000+0  73916-3 0  9994","line2":"2 66929  53.1567 171.2183 0001387 209.0995 150.9930 15.34436645 45240","mean_motion":15.34436645,"eccentricity":0.0001387,"inclination_deg":53.1567,"raan_deg":171.2183,"arg_perigee_deg":209.0995,"mean_anomaly_deg":150.993,"bstar":0.00073916,"rev_number":4524,"period_min":93.845516834617,"perigee_km":461.64551627725,"apogee_km":463.543135147,"semimajor_km":6840.7313257121,"source":"CELESTRAK","updated_at":"2026-09-21T09:00:36.056357Z"}}